This demonstration page uses our WeatherBlox Daily Observations layout. Learn more.

Hourly Observations for October 14, 2019

Temp ( °F °C ) Dew Point ( °F °C ) Humidity (%) Winds ( mph kmh ) Pressure ( in mb ) Visibility ( mi km ) Precip ( " mm )
12:15 am 00:15 Clear 41 4.8 30 -1.2 65 65 ESE 5 7 30.03 1017 10 16.09344 0 0
12:35 am 00:35 Clear 40 4.3 30 -1.2 68 68 ESE 3 6 30.03 1017 10 16.09344 0 0
12:55 am 00:55 Clear 37 3 29 -1.5 73 73 E 5 7 30.03 1017 10 16.09344 0 0
1:15 am 01:15 Clear 39 4.1 29 -1.4 68 68 Calm 30.03 1017 10 16.09344 0 0
1:35 am 01:35 Clear 38 3.5 29 -1.7 69 69 Calm 30.03 1017 10 16.09344 0 0
1:55 am 01:55 Clear 38 3.5 29 -1.6 70 70 SE 3 6 30.03 1017 10 16.09344 0 0
2:15 am 02:15 Clear 37 2.8 29 -1.7 73 73 SE 3 6 30.03 1017 10 16.09344 0 0
2:35 am 02:35 Clear 38 3.5 29 -1.6 70 70 SE 3 6 30.03 1017 10 16.09344 0 0
2:55 am 02:55 Clear 38 3.2 29 -1.5 72 72 SSE 3 6 30.03 1017 10 16.09344 0 0
3:15 am 03:15 Clear 38 3.6 29 -1.5 70 70 S 3 6 30.03 1017 10 16.09344 0 0
3:35 am 03:35 Clear 38 3.5 29 -1.5 70 70 S 5 7 30.03 1017 10 16.09344 0 0
3:55 am 03:55 Clear 36 2.1 29 -1.8 76 76 SE 5 7 30.03 1017 10 16.09344 0 0
4:15 am 04:15 Clear 37 2.8 29 -1.6 73 73 Calm 30 1016 10 16.09344 0 0
4:35 am 04:35 Clear 39 3.7 30 -1.2 71 71 Calm 30 1016 10 16.09344 0 0
4:55 am 04:55 Clear 36 2 29 -1.7 77 77 Calm 30.03 1017 10 16.09344 0 0
5:15 am 05:15 Clear 37 2.7 30 -1.3 75 75 Calm 30 1016 10 16.09344 0 0
5:35 am 05:35 Clear 35 1.4 29 -1.9 79 79 Calm 30.03 1017 10 16.09344 0 0
5:55 am 05:55 Clear 34 1 28 -2 81 81 SE 5 7 30.03 1017 10 16.09344 0 0
6:15 am 06:15 Clear 36 2 29 -1.5 78 78 SSE 5 7 30.03 1017 10 16.09344 0 0
6:35 am 06:35 Clear 37 2.5 29 -1.5 75 75 SSE 3 6 30 1016 10 16.09344 0 0
6:55 am 06:55 Clear 37 2.5 29 -1.5 75 75 SE 3 6 30 1016 10 16.09344 0 0
7:15 am 07:15 Clear 33 0.7 29 -1.6 85 85 SSE 3 6 30.03 1017 10 16.09344 0 0
7:35 am 07:35 Clear 37 2.7 30 -1 77 77 S 3 6 30 1016 10 16.09344 0 0
7:55 am 07:55 Sunny 38 3.5 31 -0.7 74 74 S 5 7 30 1016 10 16.09344 0 0
8:15 am 08:15 Sunny 38 3.5 31 -0.6 75 75 Calm 30 1016 10 16.09344 0 0
8:35 am 08:35 Sunny 39 3.7 31 -0.3 75 75 Calm 30 1016 10 16.09344 0 0
8:55 am 08:55 Sunny 42 5.4 33 0.5 71 71 Calm 29.97 1015 10 16.09344 0 0
9:15 am 09:15 Sunny 44 6.6 35 1.4 70 70 S 3 6 29.97 1015 10 16.09344 0 0
9:35 am 09:35 Sunny 47 8.2 37 2.7 69 69 S 6 9 29.97 1015 10 16.09344 0 0
9:55 am 09:55 Sunny 50 9.8 38 3.6 66 66 S 10 17 29.91 1013 10 16.09344 0 0
10:15 am 10:15 Sunny 52 11.3 40 4.3 62 62 S 8 13 29.91 1013 10 16.09344 0 0
10:35 am 10:35 Sunny 55 13 41 4.9 58 58 SSE 7 11 29.88 1012 10 16.09344 0 0
10:55 am 10:55 Sunny 58 14.2 41 5.2 55 55 S 7 11 29.88 1012 10 16.09344 0 0
11:15 am 11:15 Sunny 59 15 42 5.6 54 54 S 7 11 29.88 1012 10 16.09344 0 0
11:35 am 11:35 Sunny 62 16.4 43 5.9 50 50 S 8 13 29.85 1011 10 16.09344 0 0
11:55 am 11:55 Sunny 64 17.5 43 6.3 48 48 SSW 9 15 29.83 1010 10 16.09344 0 0
12:15 pm 12:15 Sunny 64 18 43 6.2 46 46 S 8 13 29.83 1010 10 16.09344 0 0
12:35 pm 12:35 Sunny 67 19.3 44 6.6 44 44 SSW 7 11 29.8 1009 10 16.09344 0 0
12:55 pm 12:55 Sunny 68 20 44 6.5 42 42 S 12 19 29.77 1008 10 16.09344 0 0
1:15 pm 13:15 Sunny 69 20.5 44 6.7 41 41 S 16 26 29.77 1008 10 16.09344 0 0
1:35 pm 13:35 Sunny 70 21.3 45 7 40 40 SSW 13 20 29.71 1006 10 16.09344 0 0
1:55 pm 13:55 Sunny 71 21.9 45 7.1 39 39 SSW 14 22 29.71 1006 10 16.09344 0 0
2:15 pm 14:15 Sunny 71 21.9 45 7.1 39 39 SSW 12 19 29.71 1006 10 16.09344 0 0
2:35 pm 14:35 Sunny 72 22.3 45 7 37 37 SSW 15 24 29.68 1005 10 16.09344 0 0
2:55 pm 14:55 Sunny 73 22.7 45 7.3 37 37 S 15 24 29.68 1005 10 16.09344 0 0
3:15 pm 15:15 Sunny 73 23 46 7.5 37 37 S 14 22 29.68 1005 10 16.09344 0 0
3:35 pm 15:35 Sunny 74 23.1 46 7.5 37 37 S 15 24 29.68 1005 10 16.09344 0 0
3:55 pm 15:55 Sunny 74 23.5 46 7.5 36 36 S 14 22 29.68 1005 10 16.09344 0 0
4:15 pm 16:15 Sunny 75 23.7 46 7.7 36 36 S 15 24 29.68 1005 10 16.09344 0 0
4:35 pm 16:35 Sunny 75 23.7 46 8 37 37 S 14 22 29.68 1005 10 16.09344 0 0
4:55 pm 16:55 Sunny 75 23.8 46 8 36 36 S 13 20 29.68 1005 10 16.09344 0 0
5:15 pm 17:15 Sunny 75 24.1 47 8.3 37 37 S 13 20 29.68 1005 10 16.09344 0 0
5:35 pm 17:35 Sunny 75 24 47 8.5 37 37 S 10 17 29.68 1005 10 16.09344 0 0
5:55 pm 17:55 Sunny 74 23.6 48 8.8 39 39 S 7 11 29.68 1005 10 16.09344 0 0
6:15 pm 18:15 Sunny 73 22.6 48 8.8 41 41 SSE 6 9 29.68 1005 10 16.09344 0 0
6:35 pm 18:35 Sunny 70 21 48 8.8 46 46 SSE 6 9 29.68 1005 10 16.09344 0 0
6:55 pm 18:55 Sunny 67 19.6 47 8.5 49 49 SSE 6 9 29.71 1006 10 16.09344 0 0
7:15 pm 19:15 Clear 64 17.5 47 8.1 54 54 SSE 7 11 29.71 1006 10 16.09344 0 0
7:35 pm 19:35 Clear 63 17 46 8 56 56 SSE 3 6 29.74 1007 10 16.09344 0 0
7:55 pm 19:55 Clear 60 15.3 46 7.8 61 61 SSE 3 6 29.74 1007 10 16.09344 0 0
8:15 pm 20:15 Clear 62 16.8 47 8.3 57 57 SSE 3 6 29.74 1007 10 16.09344 0 0
8:35 pm 20:35 Clear 61 16.2 46 8 59 59 S 5 7 29.74 1007 10 16.09344 0 0
8:55 pm 20:55 Clear 60 15.8 47 8.1 60 60 S 5 7 29.74 1007 10 16.09344 0 0
9:15 pm 21:15 Clear 54 12.3 44 6.8 69 69 SSE 3 6 29.77 1008 10 16.09344 0 0
9:35 pm 21:35 Clear 57 14.1 46 7.9 66 66 Calm 29.74 1007 10 16.09344 0 0
9:55 pm 21:55 Clear 52 11 44 6.8 76 76 Calm 29.77 1008 10 16.09344 0 0
10:15 pm 22:15 Clear 54 12.2 45 7.4 73 73 SSW 5 7 29.77 1008 10 16.09344 0 0
10:35 pm 22:35 Clear 55 12.8 47 8.2 74 74 SSW 7 11 29.77 1008 10 16.09344 0 0
10:55 pm 22:55 Clear 56 13.6 47 8.1 70 70 SSW 6 9 29.77 1008 10 16.09344 0 0
11:15 pm 23:15 Clear 51 10.3 44 6.4 77 77 Calm 29.8 1009 10 16.09344 0 0
11:35 pm 23:35 Clear 52 11.1 45 7.3 78 78 SSW 6 9 29.8 1009 10 16.09344 0 0
11:55 pm 23:55 Clear 55 13 46 8 72 72 SW 6 9 29.8 1009 10 16.09344 0 0

Powered by AerisWeather